Location: Cheching
(60.0667°N, 164.2167°W)
Time: 01:50:55
(UTC+00:00)

DX 1 - Pass Details

Date: 26 January 2021
Orbit: 618 x 631 km, 98.5° (Epoch: 07 March)

Event Time Altitude Azimuth Distance (km) Brightness Sun altitude
Rises 16:33:09 0° 166° (SSE) 2,909 ? -20.5°
Reaches altitude 10° 16:35:21 10° 168° (SSE) 2,004 ? -20.2°
Maximum altitude 16:39:42 73° 254° (WSW) 661 ? -19.7°
Enters shadow 16:42:50 19° 337° (NNW) 1,512 ? -19.3°
